Theta_e
336 337 339 340 341 341 340 340 340 340 339 337 335 335 333 334 333 332 329 329 328 328 328 328 328 329 329 329 328 329 329 329 328 327 326 325 324 324 323 321 320 319 317 316 314 313 312 311 309 306 303 304
332 334 337 338 338 338 338 338 339 338 337 335 335 334 332 331 330 329 328 328 328 328 328 328 327 328 328 328 328 327 327 327 326 324 325 324 323 323 322 320 319 317 316 314 313 312 311 309 307 304 303 302
333 329 333 334 335 336 336 336 337 336 334 333 333 332 330 328 326 326 327 327 327 327 328 327 326 326 327 327 327 327 326 325 324 324 324 323 323 322 320 319 318 316 314 312 311 310 308 306 303 302 301 301
328 328 327 330 332 333 334 334 334 333 330 329 327 327 326 324 324 323 325 321 325 326 327 326 324 327 327 328 327 325 325 324 323 323 322 322 321 321 319 318 316 314 312 311 309 308 305 302 300 300 300 300
324 327 325 326 326 327 329 330 330 330 325 323 322 323 321 320 324 324 324 324 325 321 325 319 319 326 326 326 325 323 323 323 322 321 320 319 319 317 316 314 313 312 311 309 307 305 301 298 298 298 299 299
321 324 326 327 329 329 329 325 324 327 328 320 326 319 320 319 317 317 316 318 317 319 320 320 317 321 324 324 323 322 322 321 320 319 317 316 313 311 307 303 301 302 305 305 304 301 298 297 297 297 297 298
319 321 324 323 324 324 322 323 324 325 322 321 320 318 315 314 314 313 313 314 314 315 314 319 316 320 323 322 321 320 320 319 319 318 316 313 310 307 303 299 299 298 298 299 298 296 297 297 296 296 297 297
318 319 320 321 321 322 323 323 320 320 318 316 314 312 311 310 310 310 310 310 310 311 316 317 315 316 317 317 315 316 317 317 316 314 312 309 306 300 298 298 298 298 297 297 297 297 296 296 296 296 296 296
316 317 317 318 318 319 319 318 316 315 314 312 310 309 308 307 307 307 308 310 311 310 310 310 309 308 307 307 306 303 302 301 300 299 299 299 298 298 298 298 297 298 297 297 296 296 295 295 295 295 295 295
315 314 315 315 316 316 315 315 313 312 311 309 307 306 304 304 305 305 306 307 306 305 306 305 304 302 301 302 300 299 297 296 296 296 297 297 297 296 296 296 297 297 297 296 295 295 295 295 294 295 294 294
313 313 315 314 313 314 313 312 311 310 309 307 305 304 303 303 303 304 304 303 303 302 302 302 300 298 298 298 297 296 296 295 295 296 296 296 296 295 296 295 295 295 294 295 295 294 294 294 294 294 294 294
312 313 312 312 310 313 311 309 310 309 307 305 303 302 302 302 302 302 302 302 301 300 299 299 297 296 295 296 295 295 295 295 295 295 295 295 295 295 295 294 294 294 293 293 294 294 294 293 293 293 293 294
311 311 311 310 310 310 309 309 309 308 305 303 302 301 301 301 300 301 301 300 300 297 298 296 294 294 294 294 294 294 294 295 295 294 294 294 294 294 294 294 294 293 293 293 293 293 293 293 293 293 293 294
309 309 309 309 309 310 308 308 307 305 303 302 300 299 300 299 300 299 299 299 297 296 296 294 293 293 293 293 293 294 294 294 294 294 293 293 294 294 294 294 294 293 293 292 292 292 292 292 292 293 293 293
309 308 308 308 309 308 307 307 305 303 303 301 299 299 299 298 299 298 298 298 296 296 295 293 293 292 292 293 293 293 293 293 294 293 293 294 293 293 293 294 293 292 292 292 292 292 292 292 292 293 293 293
308 307 308 308 307 306 307 305 303 302 302 300 298 298 298 298 297 297 297 297 295 295 294 293 292 292 292 292 292 293 293 293 293 293 292 292 292 292 293 292 292 291 291 291 291 292 291 292 292 292 293 293
308 308 307 307 306 306 305 303 302 301 301 300 298 297 297 297 297 297 296 296 295 295 294 293 292 291 292 292 292 292 293 293 293 293 292 292 292 291 291 291 291 291 290 291 291 291 291 292 292 292 293 293
308 307 306 306 305 304 303 302 301 300 300 300 298 297 297 296 296 296 296 296 295 295 293 292 292 292 291 291 291 292 292 292 292 292 292 291 291 291 291 291 291 290 291 290 290 291 291 292 292 292 292 292
307 307 306 305 304 303 302 301 301 300 299 299 298 297 296 296 296 296 295 295 295 294 293 292 291 291 290 291 291 291 291 291 291 292 291 291 291 291 290 291 291 291 291 291 290 291 291 291 291 292 292 292
307 306 305 304 303 302 301 300 300 299 298 298 297 296 296 296 296 296 295 294 295 293 293 292 291 290 290 290 291 290 290 291 290 291 291 291 290 289 290 290 291 291 291 291 290 290 290 291 291 291 292 292
306 306 304 303 302 300 300 299 299 298 297 297 296 295 296 296 295 295 294 294 294 294 293 292 291 289 289 290 290 290 290 291 290 290 290 290 289 290 291 291 291 290 290 290 289 290 290 290 291 291 292 291
305 304 303 301 300 299 297 298 298 297 296 295 295 295 295 296 295 295 294 294 294 294 293 292 291 289 289 290 289 289 290 290 290 290 290 289 289 288 290 290 291 290 290 290 289 289 289 290 290 291 291 291
304 303 300 298 297 297 296 296 297 296 294 295 295 294 295 295 295 295 294 294 293 293 292 292 290 289 289 289 289 289 289 289 289 289 289 289 288 288 288 290 290 290 290 289 289 288 288 289 290 290 290 290
302 299 297 295 294 294 294 295 294 294 294 294 294 294 294 295 295 295 294 293 293 293 292 291 290 289 289 289 289 289 288 288 288 288 288 288 289 289 289 288 289 289 289 288 288 288 288 289 290 290 289 289
300 297 296 296 294 294 294 294 294 294 294 294 294 294 294 294 294 295 294 293 293 293 292 291 290 289 288 289 289 289 289 289 289 289 288 288 289 289 289 289 287 288 290 289 286 288 288 288 289 290 289 288
300 299 298 296 295 296 295 294 293 293 293 293 294 294 294 294 294 294 294 293 293 292 292 290 289 289 288 288 288 289 289 288 289 288 287 288 288 287 289 289 288 287 289 290 289 286 286 287 289 290 288 288
299 299 299 298 298 297 296 296 295 295 294 294 293 293 294 293 294 294 293 293 292 292 291 290 290 289 288 288 288 287 287 287 287 287 287 288 288 286 288 288 287 287 288 291 289 290 288 285 286 288 287 288
299 299 299 297 296 297 296 294 294 294 293 293 293 292 292 293 293 293 293 292 292 292 291 291 290 289 288 288 288 288 287 287 287 287 286 287 288 289 287 287 287 288 286 287 290 288 289 285 287 285 286 287
298 297 295 294 293 294 293 293 293 292 291 292 292 292 291 291 292 292 292 292 292 292 291 291 290 289 289 288 288 288 287 287 287 287 287 287 287 288 290 286 288 286 286 286 284 291 285 285 286 288 287 285
296 296 294 292 292 291 291 290 290 290 290 290 290 290 291 291 291 292 292 292 292 292 291 291 290 290 289 288 287 287 287 287 287 287 286 287 287 287 289 289 287 286 286 285 287 287 287 293 296 289 285 286
296 295 295 294 294 294 292 292 292 293 294 292 292 293 291 291 291 292 292 291 291 292 292 291 290 290 289 288 287 287 287 286 287 287 287 287 286 288 287 288 288 287 286 286 286 286 287 286 284 289 287 286
Wind_Speed
12 12 13 12 12 13 13 13 13 11 11 12 11 12 11 8 8 10 11 12 11 11 11 12 11 11 11 11 11 12 12 12 12 12 12 12 12 12 12 12 11 12 12 12 12 12 12 11 11 10 6 4
11 11 12 12 12 12 11 11 10 11 10 10 11 11 9 7 9 9 11 11 12 13 13 12 12 11 11 11 12 12 12 12 12 12 12 11 11 11 12 12 12 12 12 12 12 12 11 11 11 9 7 5
8 10 11 11 12 11 10 11 11 11 10 10 10 9 9 9 9 9 9 12 13 13 12 10 11 12 12 12 12 12 12 12 12 12 11 11 11 12 12 12 12 12 12 12 12 12 11 11 10 9 5 5
6 7 11 9 10 11 10 11 11 11 10 10 9 9 9 10 9 8 8 10 10 10 11 9 8 10 11 12 12 12 12 12 12 12 12 12 12 12 12 12 12 12 12 12 12 12 11 10 8 5 4 4
6 6 9 9 9 10 10 10 11 11 11 9 9 9 9 10 8 6 5 7 6 9 7 7 7 10 12 12 12 12 12 12 12 12 12 12 12 12 12 12 13 13 12 12 12 11 10 8 5 5 4 4
5 6 7 7 7 7 8 9 9 10 9 7 7 10 9 6 5 4 4 5 6 5 6 7 8 9 11 12 12 12 12 12 12 12 12 13 13 13 12 11 5 6 10 12 11 10 8 5 4 4 4 4
6 7 6 6 6 6 7 7 8 7 8 7 7 7 7 5 4 5 5 5 6 5 6 6 7 8 10 12 11 12 12 11 12 12 13 13 13 12 11 5 3 4 3 5 8 7 4 4 4 4 4 3
5 6 6 5 5 5 5 5 5 6 7 7 7 7 5 5 5 5 4 6 8 7 5 5 7 8 8 9 8 9 7 9 11 12 13 12 11 7 3 3 3 3 3 3 3 3 3 4 3 4 3 3
6 6 5 5 5 5 4 4 4 5 6 6 7 7 5 5 6 5 4 5 4 4 4 4 4 4 4 4 5 6 5 4 4 4 4 4 4 3 3 4 3 3 3 3 3 4 3 4 3 3 3 3
6 7 6 6 6 6 4 5 5 5 5 6 7 6 6 6 6 5 5 5 5 4 4 4 4 3 3 4 4 3 4 3 3 3 3 3 4 3 3 4 3 3 3 3 3 3 3 3 3 3 3 3
6 7 6 6 6 7 6 5 6 5 5 6 7 7 7 7 6 6 5 5 5 5 4 4 4 4 3 4 4 3 4 4 3 3 3 3 4 3 4 4 4 4 4 3 4 3 3 3 3 3 3 3
8 7 8 8 8 7 7 7 6 6 6 6 6 7 6 6 6 7 6 6 5 5 4 4 3 3 3 3 3 3 3 4 3 3 3 4 4 4 3 4 3 3 3 3 3 4 3 3 3 3 2 2
7 7 7 7 8 8 7 7 7 6 6 6 6 6 7 7 7 6 6 7 6 5 4 4 3 4 3 3 3 4 3 3 5 4 4 4 4 3 3 3 3 3 3 3 3 3 3 3 3 3 2 2
8 9 9 9 9 8 8 8 7 8 7 6 7 7 7 8 7 7 7 7 5 6 6 4 4 4 4 4 4 4 4 3 3 5 4 4 3 4 3 3 3 3 3 3 3 2 3 3 3 2 2 2
10 8 9 9 8 8 8 8 8 7 7 7 7 7 8 8 7 7 7 7 7 6 6 5 5 5 4 4 4 3 4 3 4 4 4 4 4 3 3 2 2 2 3 3 3 2 3 3 2 3 2 3
10 10 10 9 8 9 8 9 8 8 7 8 7 8 9 8 8 8 7 8 8 7 7 6 6 5 5 4 3 3 4 4 3 4 4 4 3 3 2 2 2 1 2 2 2 2 3 2 3 3 2 3
10 9 9 9 10 8 8 8 8 8 8 8 8 8 9 9 9 8 8 8 9 8 7 7 7 6 5 4 4 4 5 5 4 4 5 4 3 3 2 2 2 2 1 2 2 2 2 2 3 2 2 3
9 10 10 8 8 8 8 8 8 8 8 8 8 8 10 9 9 8 7 8 8 7 7 7 6 7 5 5 5 4 5 5 4 5 4 4 3 3 2 3 3 3 3 2 2 2 2 2 3 2 3 3
12 9 9 9 9 9 9 8 9 8 8 8 8 8 8 10 10 9 9 8 8 8 7 7 7 7 5 5 5 5 4 5 4 4 5 4 4 2 2 2 2 2 3 3 3 3 2 3 3 2 4 3
10 10 9 8 8 8 9 8 8 8 8 8 7 8 8 10 10 9 10 10 9 9 8 8 8 6 6 7 5 5 5 5 6 5 4 3 3 5 3 3 2 1 3 3 4 3 3 3 3 4 3 4
11 9 10 9 8 8 8 8 8 7 7 7 8 8 8 9 9 10 10 10 10 9 9 8 7 6 7 7 6 6 5 5 4 5 5 4 3 1 3 3 4 2 2 4 4 3 4 3 4 4 4 4
10 8 7 7 8 8 9 9 8 7 7 8 8 8 9 9 10 10 10 10 10 8 8 7 8 8 8 7 7 6 6 5 5 4 5 5 2 3 2 3 5 4 3 4 4 4 4 4 4 4 4 4
8 7 7 6 8 9 9 8 7 8 8 8 8 9 9 10 10 10 10 10 10 9 9 8 8 8 9 8 7 7 7 6 6 5 4 5 4 2 2 1 2 4 5 5 4 4 4 4 5 4 4 3
8 7 9 9 7 7 9 8 9 9 10 9 10 10 11 11 10 10 10 11 10 9 9 9 8 9 9 8 8 8 8 7 7 9 8 6 6 5 3 1 2 4 7 7 7 6 5 4 4 5 3 4
10 11 9 6 10 12 10 10 9 9 9 10 9 10 11 11 10 10 10 10 10 10 9 8 8 8 8 8 8 8 9 8 8 7 6 6 4 6 5 3 3 2 3 8 6 5 5 4 3 3 3 4
10 10 11 12 11 10 9 10 12 12 11 11 8 9 9 9 9 9 10 10 10 8 9 9 9 9 9 9 8 7 6 7 7 8 7 7 5 1 4 4 4 4 4 2 5 7 4 2 1 2 3 3
11 9 9 9 6 8 5 4 3 1 3 5 8 8 8 8 9 10 9 10 10 9 9 9 9 9 9 9 8 9 9 9 9 8 9 9 8 6 1 1 1 3 3 3 2 3 5 3 3 2 1 1
11 9 7 5 3 5 5 5 6 6 5 7 7 9 9 9 9 10 9 10 10 8 9 11 11 10 9 10 9 9 10 10 10 9 8 8 6 5 6 3 4 1 3 2 6 4 1 2 1 2 6 3
10 10 8 6 6 5 5 4 7 7 6 9 8 7 9 10 9 10 10 11 12 11 12 11 10 10 10 10 10 9 9 10 11 11 9 9 7 10 8 7 2 3 2 4 3 3 6 2 2 3 2 3
11 11 11 11 10 9 8 8 10 15 15 11 13 12 6 7 11 10 10 10 11 10 10 10 10 10 10 10 9 9 9 8 8 9 10 11 9 10 5 6 6 5 2 1 1 1 2 0 2 4 2 2
11 10 9 13 13 11 10 10 9 1 1 6 5 4 10 8 8 11 11 10 10 10 9 9 9 10 9 9 9 8 8 9 10 10 10 8 8 8 5 5 8 9 6 3 1 1 1 3 1 1 7 4
Wind_Direction
201 200 204 201 205 204 206 200 203 199 197 201 188 198 201 187 177 177 188 192 191 191 191 184 172 165 160 155 152 145 141 138 133 127 123 119 116 112 108 104 101 98 94 89 87 83 77 71 65 58 51 57
200 204 201 197 204 209 200 197 196 187 188 193 188 189 190 164 155 177 190 191 191 190 183 175 169 165 162 158 153 147 142 136 130 126 121 116 112 108 104 100 96 91 87 84 80 77 74 70 67 61 53 52
202 203 199 196 201 202 191 187 188 182 181 178 186 172 171 153 156 174 186 188 188 183 176 165 166 167 163 158 152 144 138 134 130 125 120 114 110 106 102 98 92 86 80 77 73 68 64 62 62 58 52 50
190 199 193 193 194 190 185 183 184 174 171 170 170 161 150 148 151 160 168 176 177 170 166 163 166 167 159 153 146 143 139 134 131 127 122 117 112 108 103 97 92 87 83 78 71 65 58 54 47 45 45 41
190 199 191 192 194 185 182 181 174 166 160 159 159 152 146 141 141 138 148 156 152 155 157 154 165 163 158 152 148 144 140 135 133 129 125 121 115 107 97 88 83 85 84 81 78 72 65 55 49 42 36 28
186 191 187 182 186 183 173 173 166 162 154 153 145 143 140 135 134 135 137 139 136 135 152 159 166 161 159 153 147 144 140 137 133 129 127 123 117 111 102 93 84 80 81 82 83 83 81 69 66 54 45 37
175 185 169 172 172 172 168 163 155 146 145 133 137 135 135 140 135 139 140 142 142 137 152 155 159 153 152 149 145 140 138 135 132 128 125 119 114 109 105 101 97 97 98 92 91 91 78 77 70 70 60 59
179 178 170 163 159 161 157 152 140 138 137 138 140 141 141 140 140 140 142 141 144 143 146 140 124 113 110 95 95 107 119 122 123 121 113 107 103 99 96 102 103 102 97 91 84 75 76 73 72 63 57 56
183 170 167 164 165 161 161 147 142 144 141 144 145 146 146 142 141 143 147 150 146 146 140 125 117 100 105 106 94 85 89 77 62 66 91 94 89 86 98 93 84 86 87 80 75 68 63 70 64 63 58 54
169 164 176 175 170 160 159 157 152 150 156 153 156 153 149 145 143 151 150 154 153 151 154 144 139 124 121 124 114 98 110 103 108 119 116 107 97 88 82 78 72 68 72 87 76 70 63 63 60 56 52 47
174 184 177 173 171 169 173 165 160 169 165 163 157 157 157 155 159 157 159 158 162 159 164 154 147 138 134 133 127 125 127 132 135 130 116 103 94 91 89 83 78 76 72 73 85 80 71 63 64 60 52 46
183 181 177 179 167 184 161 165 176 172 172 153 166 166 166 161 160 160 164 167 167 163 164 160 143 131 134 128 131 139 138 141 133 120 105 103 100 100 91 97 90 90 83 80 79 92 81 75 71 64 60 60
185 180 182 176 180 183 166 180 177 168 158 170 168 170 169 166 163 169 168 170 170 156 164 146 150 150 141 140 140 152 150 148 135 120 121 118 119 114 115 115 107 102 91 89 83 91 93 85 77 74 70 61
187 187 185 186 186 178 172 182 169 160 175 172 168 173 179 176 170 172 171 165 161 167 158 154 149 149 150 153 151 159 150 157 135 131 128 124 122 123 121 115 110 111 99 85 89 86 96 85 79 79 76 68
194 177 194 188 182 177 184 170 164 175 172 172 180 176 171 176 177 170 172 168 164 169 159 161 160 160 151 154 163 160 137 139 129 123 125 131 128 126 123 113 114 110 105 102 96 96 95 95 100 94 92 89
190 190 191 183 182 187 180 166 177 173 175 179 180 173 176 179 177 174 172 167 165 168 164 164 164 155 163 160 154 152 138 131 124 118 108 97 90 91 97 110 117 112 115 115 109 116 104 109 104 102 102 93
191 183 185 186 191 183 173 180 175 180 182 178 178 176 178 179 175 177 173 174 168 166 166 161 159 162 165 157 150 143 135 125 123 112 106 92 95 96 102 119 125 132 135 121 117 111 100 112 101 102 102 94
193 191 187 186 182 180 177 184 182 186 181 179 178 178 177 177 179 176 177 168 168 164 162 164 168 161 158 156 148 139 143 134 128 114 110 118 123 142 166 171 163 162 147 117 118 101 105 97 97 104 91 82
197 187 187 185 181 182 181 181 189 185 179 182 181 176 179 179 179 178 172 172 163 166 164 164 166 170 160 149 149 143 148 133 118 119 130 142 147 148 176 184 164 178 128 130 105 94 107 100 102 88 87 82
191 190 187 186 187 181 180 183 190 186 185 181 175 182 178 180 179 174 172 170 169 165 173 171 169 163 148 154 146 141 140 134 134 138 135 148 155 157 177 177 150 149 112 103 95 92 91 95 91 91 85 80
194 187 187 184 179 179 178 189 190 186 180 180 181 184 184 179 178 176 174 173 174 168 170 170 162 155 155 152 149 147 146 142 138 143 144 153 179 237 173 181 135 114 109 99 92 92 92 86 97 85 84 82
188 185 175 176 179 177 185 193 189 179 175 188 185 181 186 176 181 178 178 176 173 171 166 165 160 152 156 153 148 144 151 145 140 140 153 153 171 186 193 180 152 129 113 103 99 91 90 95 90 91 88 89
178 174 172 156 163 182 191 192 189 178 185 187 181 188 179 177 184 180 176 173 172 170 167 164 161 157 158 155 150 147 150 148 151 148 154 160 151 157 234 199 135 136 122 102 85 79 74 80 80 83 85 90
174 169 179 176 167 192 202 189 186 190 192 179 189 186 183 182 184 175 176 176 174 171 166 164 164 158 159 159 155 155 157 164 169 165 159 166 156 154 136 89 118 141 118 88 81 79 72 58 69 70 68 77
176 181 178 187 199 204 187 188 183 188 192 191 193 183 186 181 183 173 174 176 173 174 164 162 153 153 163 164 166 167 173 158 153 153 153 142 154 162 157 152 155 184 152 121 86 73 74 73 30 45 44 69
187 191 189 188 198 188 174 179 186 195 189 192 185 186 187 184 178 173 177 174 175 167 165 160 163 166 167 167 171 163 139 145 147 149 154 155 153 240 184 150 171 180 162 143 153 147 137 75 77 42 13 46
194 187 193 197 191 191 186 219 258 290 180 170 184 184 180 176 178 177 178 172 174 169 169 165 161 171 166 172 160 154 160 159 163 165 164 176 171 153 105 111 156 200 266 131 103 102 121 156 167 198 211 359
191 181 173 172 103 158 168 173 151 159 153 182 169 186 180 185 180 175 175 169 170 169 174 172 174 166 171 174 175 165 158 167 168 165 170 178 193 170 143 185 172 199 188 208 160 160 289 136 212 149 219 169
164 141 129 123 82 90 98 97 158 165 200 186 183 174 190 188 171 178 174 172 179 179 178 177 175 172 172 170 175 169 165 170 178 175 173 172 173 197 171 160 155 166 162 218 302 157 139 115 220 233 99 120
164 170 162 153 155 169 176 186 180 194 194 172 184 192 136 152 186 176 178 181 181 181 176 178 179 173 168 174 172 177 171 164 155 172 177 187 185 189 237 156 146 147 163 62 158 317 345 299 162 155 163 179
175 175 179 183 184 181 183 189 211 266 69 187 195 159 182 183 173 184 180 180 181 181 179 175 175 177 178 173 172 166 160 168 178 177 184 166 186 198 163 156 166 172 160 136 115 45 88 87 49 121 138 191